GW3011 Weather Reports


time (UTC)temp
C
wind
direction
speed
KPH
gust
KPH
rain 1hr
cm
rain 24hr
cm
rain mn
cm
humidity
%
barometer
mb
20260906064811 20 191 0.0 0.0 0.00 0.00 0.00 83 1011.3
20260906064307 20 205 0.0 0.0 0.00 0.00 0.00 81 1011.3
20260906063801 20 179 0.0 0.0 0.00 0.00 0.00 80 1011.5
20260906063257 21 206 0.0 0.0 0.00 0.00 0.00 80 1011.4
20260906062752 21 270 0.0 0.0 0.00 0.00 0.00 78 1011.6
20260906062251 21 271 0.0 0.0 0.00 0.00 0.00 77 1011.4
20260906061747 21 271 0.0 0.0 0.00 0.00 0.00 76 1011.6
20260906061243 21 179 0.0 0.0 0.00 0.00 0.00 76 1011.6
20260906060738 21 182 0.0 0.0 0.00 0.00 0.00 76 1011.6
20260906060236 21 271 0.0 0.0 0.00 0.00 0.00 75 1011.8
20260906055731 21 288 0.0 0.0 0.00 0.00 0.00 76 1011.6
20260906055226 21 86 0.0 0.0 0.00 0.00 0.00 76 1011.8
20260906054721 21 65 0.0 0.0 0.00 0.00 0.00 77 1011.5
20260906054216 21 50 0.0 0.0 0.00 0.00 0.00 77 1011.8
20260906053713 21 49 0.0 0.0 0.00 0.00 0.00 77 1011.6
20260906053208 20 48 0.0 0.0 0.00 0.00 0.00 77 1012.0
20260906052703 21 63 0.0 0.0 0.00 0.00 0.00 76 1011.8
20260906052159 21 63 0.0 0.0 0.00 0.00 0.00 76 1011.9
20260906051656 21 101 0.0 0.0 0.00 0.00 0.00 76 1011.8
20260906051155 21 101 0.0 0.0 0.00 0.00 0.00 75 1011.7
20260906050651 21 264 0.0 0.0 0.00 0.00 0.00 74 1011.7
20260906050146 21 151 0.0 0.0 0.00 0.00 0.00 74 1011.8
20260906045644 21 146 0.0 0.0 0.00 0.00 0.00 74 1011.8
20260906045140 21 189 0.0 0.0 0.00 0.00 0.00 74 1011.9
20260906044636 21 228 0.0 0.0 0.00 0.00 0.00 74 1012.0
20260906044131 21 210 0.0 0.0 0.00 0.00 0.00 73 1012.0
20260906043627 21 153 0.0 0.0 0.00 0.00 0.00 73 1012.0
20260906043122 21 199 0.0 0.0 0.00 0.00 0.00 74 1011.7
20260906042621 21 156 0.0 0.0 0.00 0.00 0.00 74 1011.6
20260906042115 21 186 0.0 0.0 0.00 0.00 0.00 74 1011.8
20260906041612 21 240 0.0 0.0 0.00 0.00 0.00 74 1011.4
20260906041111 21 270 0.0 0.0 0.00 0.00 0.00 74 1011.5
20260906040607 21 175 0.0 0.0 0.00 0.00 0.00 73 1011.8
20260906035557 22 278 0.0 0.0 0.00 0.00 0.00 73 1011.8
20260906035053 22 307 0.0 0.0 0.00 0.00 0.00 72 1011.9
20260906034548 22 177 0.0 0.0 0.00 0.00 0.00 71 1012.0
20260906034042 22 348 0.0 0.0 0.00 0.00 0.00 71 1011.8
20260906033538 22 184 0.0 0.0 0.00 0.00 0.00 70 1011.9
20260906033028 22 211 0.0 0.0 0.00 0.00 0.00 70 1011.7
20260906032524 22 200 0.0 0.0 0.00 0.00 0.00 70 1011.7
20260906032018 22 210 0.0 0.0 0.00 0.00 0.00 69 1011.7
20260906031514 22 238 0.0 0.0 0.00 0.00 0.00 69 1011.5
20260906031010 22 170 0.0 0.0 0.00 0.00 0.00 68 1011.4
20260906030509 22 187 0.0 0.0 0.00 0.00 0.00 68 1011.5
20260906030008 22 219 0.0 0.0 0.00 0.00 0.00 67 1011.6
20260906025508 22 211 0.0 0.0 0.00 0.00 0.00 67 1011.6
20260906025006 22 251 0.0 0.0 0.00 0.00 0.00 67 1011.3
20260906024501 22 276 0.0 0.0 0.00 0.00 0.00 67 1011.4
20260906023956 22 231 0.0 0.0 0.00 0.00 0.00 67 1011.4
20260906023452 22 140 0.0 0.0 0.00 0.00 0.00 67 1011.5
20260906022952 23 182 0.0 0.0 0.00 0.00 0.00 65 1011.6
20260906022443 23 203 0.0 0.0 0.00 0.00 0.00 66 1011.4
20260906021937 23 159 0.0 0.0 0.00 0.00 0.00 66 1011.5
20260906021432 23 191 0.0 0.0 0.00 0.00 0.00 66 1011.4
20260906020932 23 188 0.0 0.0 0.00 0.00 0.00 66 1011.4
20260906020426 23 190 0.0 0.0 0.00 0.00 0.00 66 1011.5
20260906015921 23 187 0.0 0.0 0.00 0.00 0.00 66 1011.4
20260906015420 23 181 0.0 0.0 0.00 0.00 0.00 65 1011.4
20260906014915 23 211 0.0 0.0 0.00 0.00 0.00 65 1011.1
20260906014414 23 226 0.0 0.0 0.00 0.00 0.00 65 1011.1
20260906013911 23 206 0.0 0.0 0.00 0.00 0.00 64 1011.2
20260906013406 23 305 0.0 0.0 0.00 0.00 0.00 64 1011.0
20260906012902 23 266 0.0 0.0 0.00 0.00 0.00 63 1011.1
20260906012356 23 176 0.0 0.0 0.00 0.00 0.00 62 1010.8
20260906011855 23 174 0.0 0.0 0.00 0.00 0.00 62 1011.0
20260906011350 23 204 0.0 0.0 0.00 0.00 0.00 61 1011.2
20260906010846 23 224 0.0 0.0 0.00 0.00 0.00 61 1011.0
20260906010342 23 232 0.0 0.0 0.00 0.00 0.00 61 1010.9
20260906005838 23 217 0.0 0.0 0.00 0.00 0.00 62 1010.7
20260906005337 24 206 0.0 0.0 0.00 0.00 0.00 62 1010.6
20260906004836 24 197 0.0 0.0 0.00 0.00 0.00 61 1010.8
20260906004336 24 255 0.0 0.0 0.00 0.00 0.00 60 1010.9
20260906003831 24 213 0.0 0.0 0.00 0.00 0.00 60 1010.7
20260906003326 24 198 0.0 0.0 0.00 0.00 0.00 59 1010.6
20260906002822 24 156 0.0 0.0 0.00 0.00 0.00 59 1010.5
20260906002321 24 196 0.0 0.0 0.00 0.00 0.00 59 1010.3
20260906001817 24 212 0.0 0.0 0.00 0.00 0.00 58 1010.3
20260906001312 24 166 0.0 0.0 0.00 0.00 0.00 61 1010.3
20260906000808 25 202 0.0 0.0 0.00 0.00 0.00 58 1010.3
20260906000303 25 223 0.0 0.0 0.00 0.00 0.00 58 1010.0
20260905235757 24 226 0.0 0.0 0.00 0.00 0.00 58 1010.0
20260905235257 25 185 0.0 0.0 0.00 0.00 0.00 59 1010.1
20260905234752 25 168 0.0 0.0 0.00 0.00 0.00 58 1010.0
20260905234247 25 217 0.0 0.0 0.00 0.00 0.00 59 1009.6
20260905233742 25 197 0.0 0.0 0.00 0.00 0.00 60 1009.8
20260905233241 25 185 0.0 0.0 0.00 0.00 0.00 59 1010.0
20260905232736 25 191 0.0 0.0 0.00 0.00 0.00 59 1009.8
20260905232232 25 186 0.0 0.0 0.00 0.00 0.00 58 1010.1
20260905231728 25 196 0.0 0.0 0.00 0.00 0.00 58 1010.1
20260905231223 25 213 0.0 0.0 0.00 0.00 0.00 57 1010.1
20260905230719 25 223 0.0 0.0 0.00 0.00 0.00 58 1010.1
20260905230216 25 186 0.0 0.0 0.00 0.00 0.00 56 1010.1
20260905225711 25 205 0.0 0.0 0.00 0.00 0.00 56 1009.9
20260905225206 25 190 0.0 0.0 0.00 0.00 0.00 55 1010.0
20260905224705 25 225 0.0 0.0 0.00 0.00 0.00 55 1009.9
20260905224201 25 195 0.0 0.0 0.00 0.00 0.00 55 1010.0
20260905223657 25 215 0.0 0.0 0.00 0.00 0.00 54 1009.6
20260905223154 25 253 0.0 0.0 0.00 0.00 0.00 55 1009.7
20260905222648 25 227 0.0 0.0 0.00 0.00 0.00 53 1009.9
20260905222143 25 240 0.0 0.0 0.00 0.00 0.00 54 1010.0
20260905221638 25 201 0.0 0.0 0.00 0.00 0.00 55 1009.6
20260905221135 25 201 0.0 0.0 0.00 0.00 0.00 54 1009.6
20260905220631 26 211 0.0 0.0 0.00 0.00 0.00 54 1009.6
20260905220127 26 223 0.0 0.0 0.00 0.00 0.00 53 1009.4
20260905215626 26 225 0.0 0.0 0.00 0.00 0.00 52 1009.6
20260905215122 26 150 0.0 0.0 0.00 0.00 0.00 52 1009.4
20260905214618 26 250 0.0 0.0 0.00 0.00 0.00 54 1009.5
20260905214118 26 219 0.0 0.0 0.00 0.00 0.00 53 1009.5
20260905213613 26 197 0.0 0.0 0.00 0.00 0.00 53 1009.6
20260905213108 26 238 0.0 0.0 0.00 0.00 0.00 53 1009.7
20260905212603 26 174 0.0 0.0 0.00 0.00 0.00 53 1009.6
20260905212102 26 144 0.0 0.0 0.00 0.00 0.00 54 1009.3
20260905211558 26 215 0.0 0.0 0.00 0.00 0.00 52 1009.3
20260905211053 27 217 0.0 0.0 0.00 0.00 0.00 52 1009.3
20260905210549 26 217 0.0 0.0 0.00 0.00 0.00 51 1009.4
20260905210043 26 224 0.0 0.0 0.00 0.00 0.00 53 1009.5
20260905205542 26 246 0.0 0.0 0.00 0.00 0.00 52 1009.6
20260905205037 26 223 0.0 0.0 0.00 0.00 0.00 53 1009.5
20260905204532 26 209 0.0 0.0 0.00 0.00 0.00 51 1009.2
20260905204027 26 227 0.0 0.0 0.00 0.00 0.00 51 1009.5
20260905203526 26 164 0.0 0.0 0.00 0.00 0.00 54 1009.4
20260905203022 26 172 0.0 0.0 0.00 0.00 0.00 54 1009.2
20260905202517 26 205 0.0 0.0 0.00 0.00 0.00 53 1009.2
20260905202012 26 213 0.0 0.0 0.00 0.00 0.00 53 1009.1
20260905201508 27 189 0.0 0.0 0.00 0.00 0.00 53 1009.2
20260905201002 27 200 0.0 0.0 0.00 0.00 0.00 51 1009.3
20260905200458 26 220 0.0 0.0 0.00 0.00 0.00 51 1009.3
20260905195956 26 78 0.0 0.0 0.00 0.00 0.00 55 1009.3
20260905195451 26 173 0.0 0.0 0.00 0.00 0.00 53 1009.2
20260905194947 26 203 0.0 0.0 0.00 0.00 0.00 55 1009.4
20260905194446 26 203 0.0 0.0 0.00 0.00 0.00 53 1009.4
20260905193941 26 230 0.0 0.0 0.00 0.00 0.00 52 1009.4
20260905193441 26 264 0.0 0.0 0.00 0.00 0.00 51 1009.4
20260905192936 27 240 0.0 0.0 0.00 0.00 0.00 52 1009.3
20260905192431 27 227 0.0 0.0 0.00 0.00 0.00 50 1009.4
20260905191926 27 213 0.0 0.0 0.00 0.00 0.00 52 1009.3
20260905191425 28 140 0.0 0.0 0.00 0.00 0.00 49 1009.5
20260905190920 28 131 0.0 0.0 0.00 0.00 0.00 49 1009.3
20260905190418 26 194 0.0 0.0 0.00 0.00 0.00 51 1009.5
20260905185917 27 157 0.0 0.0 0.00 0.00 0.00 51 1009.5
20260905185412 27 225 0.0 0.0 0.00 0.00 0.00 51 1009.7
20260905184910 27 204 0.0 0.0 0.00 0.00 0.00 51 1009.5
20260905184405 27 213 0.0 0.0 0.00 0.00 0.00 52 1009.4
20260905183903 27 156 0.0 0.0 0.00 0.00 0.00 51 1009.4
20260905183359 27 184 0.0 0.0 0.00 0.00 0.00 52 1009.5
20260905182854 27 196 0.0 0.0 0.00 0.00 0.00 50 1009.7
20260905182352 26 203 0.0 0.0 0.00 0.00 0.00 52 1009.6
20260905181843 26 188 0.0 0.0 0.00 0.00 0.00 52 1009.9
20260905181343 26 204 0.0 0.0 0.00 0.00 0.00 54 1009.7
20260905180842 27 183 0.0 0.0 0.00 0.00 0.00 53 1009.9
20260905180337 27 169 0.0 0.0 0.00 0.00 0.00 52 1010.0
20260905175831 27 112 0.0 0.0 0.00 0.00 0.00 51 1010.2
20260905175326 26 218 0.0 0.0 0.00 0.00 0.00 52 1009.6
20260905174821 26 178 0.0 0.0 0.00 0.00 0.00 53 1010.1
20260905174317 26 187 0.0 0.0 0.00 0.00 0.00 53 1009.7
20260905173813 25 181 0.0 0.0 0.00 0.00 0.00 56 1009.8
20260905173308 26 222 0.0 0.0 0.00 0.00 0.00 55 1010.0
20260905172808 26 149 0.0 0.0 0.00 0.00 0.00 52 1010.1
20260905172306 27 163 0.0 0.0 0.00 0.00 0.00 50 1009.8
20260905171802 26 228 0.0 0.0 0.00 0.00 0.00 53 1010.5
20260905171259 26 140 0.0 0.0 0.00 0.00 0.00 55 1010.1
20260905170755 26 203 0.0 0.0 0.00 0.00 0.00 52 1009.9
20260905170250 26 234 0.0 0.0 0.00 0.00 0.00 54 1010.1
20260905165750 26 240 0.0 0.0 0.00 0.00 0.00 53 1010.1
20260905165246 26 125 0.0 0.0 0.00 0.00 0.00 53 1010.3
20260905164746 26 170 0.0 0.0 0.00 0.00 0.00 55 1010.1
20260905164241 26 219 0.0 0.0 0.00 0.00 0.00 52 1010.2
20260905163736 26 229 0.0 0.0 0.00 0.00 0.00 53 1010.2
20260905163233 26 175 0.0 0.0 0.00 0.00 0.00 55 1010.1
20260905162728 26 215 0.0 0.0 0.00 0.00 0.00 54 1010.1
20260905162227 26 108 0.0 0.0 0.00 0.00 0.00 55 1010.1
20260905161722 25 167 0.0 0.0 0.00 0.00 0.00 57 1010.1
20260905161220 25 200 0.0 0.0 0.00 0.00 0.00 60 1010.2
20260905160719 25 228 0.0 0.0 0.00 0.00 0.00 59 1010.1
20260905160214 25 203 0.0 0.0 0.00 0.00 0.00 60 1010.2
20260905155714 25 204 0.0 0.0 0.00 0.00 0.00 59 1010.0
20260905155213 25 168 0.0 0.0 0.00 0.00 0.00 59 1010.0
20260905154707 25 175 0.0 0.0 0.00 0.00 0.00 61 1010.2
20260905154203 25 165 0.0 0.0 0.00 0.00 0.00 59 1009.9
20260905153654 26 223 0.0 0.0 0.00 0.00 0.00 57 1010.2
20260905153148 27 147 0.0 0.0 0.00 0.00 0.00 55 1010.1
20260905152643 25 338 0.0 0.0 0.00 0.00 0.00 56 1009.9
20260905152138 24 194 0.0 0.0 0.00 0.00 0.00 59 1010.0
20260905151632 23 174 0.0 0.0 0.00 0.00 0.00 62 1010.1
20260905151123 23 227 0.0 0.0 0.00 0.00 0.00 62 1010.3
20260905150618 23 196 0.0 0.0 0.00 0.00 0.00 62 1009.9
20260905150115 23 214 0.0 0.0 0.00 0.00 0.00 61 1010.0
20260905145609 23 213 0.0 0.0 0.00 0.00 0.00 61 1009.9
20260905145108 24 216 0.0 0.0 0.00 0.00 0.00 63 1009.9
20260905144603 24 191 0.0 0.0 0.00 0.00 0.00 63 1010.2
20260905144102 25 265 0.0 0.0 0.00 0.00 0.00 61 1010.1
20260905143601 25 177 0.0 0.0 0.00 0.00 0.00 60 1010.1
20260905143057 25 200 0.0 0.0 0.00 0.00 0.00 61 1009.9
20260905142555 25 190 0.0 0.0 0.00 0.00 0.00 61 1010.0
20260905142050 25 141 0.0 0.0 0.00 0.00 0.00 61 1009.8
20260905141545 25 153 0.0 0.0 0.00 0.00 0.00 62 1010.0
20260905141041 25 180 0.0 0.0 0.00 0.00 0.00 62 1009.9
20260905140536 25 169 0.0 0.0 0.00 0.00 0.00 61 1009.8
20260905140035 25 138 0.0 0.0 0.00 0.00 0.00 60 1009.8
20260905135530 26 217 0.0 0.0 0.00 0.00 0.00 60 1009.8
20260905135025 25 239 0.0 0.0 0.00 0.00 0.00 60 1009.9
20260905134520 25 189 0.0 0.0 0.00 0.00 0.00 62 1009.8
20260905134019 25 168 0.0 0.0 0.00 0.00 0.00 61 1009.9
20260905133514 24 221 0.0 0.0 0.00 0.00 0.00 62 1010.0
20260905133014 24 214 0.0 0.0 0.00 0.00 0.00 62 1010.0
20260905132514 25 241 0.0 0.0 0.00 0.00 0.00 62 1009.7
20260905132009 25 118 0.0 0.0 0.00 0.00 0.00 62 1010.0
20260905131504 24 206 0.0 0.0 0.00 0.00 0.00 62 1010.1
20260905130959 24 249 0.0 0.0 0.00 0.00 0.00 62 1009.9
20260905130459 24 169 0.0 0.0 0.00 0.00 0.00 63 1010.4
20260905125958 24 213 0.0 0.0 0.00 0.00 0.00 63 1010.2
20260905125453 24 178 0.0 0.0 0.00 0.00 0.00 63 1010.3
20260905124949 24 254 0.0 0.0 0.00 0.00 0.00 63 1010.4
20260905124445 23 176 0.0 0.0 0.00 0.00 0.00 65 1010.4
20260905123940 23 170 0.0 0.0 0.00 0.00 0.00 65 1010.1
20260905123436 23 166 0.0 0.0 0.00 0.00 0.00 65 1010.4
20260905122931 23 185 0.0 0.0 0.00 0.00 0.00 66 1010.5
20260905122431 23 213 0.0 0.0 0.00 0.00 0.00 66 1010.8
20260905121927 23 207 0.0 0.0 0.00 0.00 0.00 65 1010.5
20260905121422 23 188 0.0 0.0 0.00 0.00 0.00 65 1010.4
20260905120916 22 135 0.0 0.0 0.00 0.00 0.00 68 1010.4
20260905120415 23 143 0.0 0.0 0.00 0.00 0.00 67 1010.5
20260905115910 22 124 0.0 0.0 0.00 0.00 0.00 71 1010.5
20260905115409 22 188 0.0 0.0 0.00 0.00 0.00 69 1010.6
20260905114859 22 150 0.0 0.0 0.00 0.00 0.00 70 1010.5
20260905114359 22 162 0.0 0.0 0.00 0.00 0.00 70 1010.4
20260905113858 22 139 0.0 0.0 0.00 0.00 0.00 72 1010.2
20260905113353 21 166 0.0 0.0 0.00 0.00 0.00 69 1010.2
20260905112848 21 149 0.0 0.0 0.00 0.00 0.00 72 1010.2
20260905112343 21 139 0.0 0.0 0.00 0.00 0.00 72 1010.3
20260905111838 21 134 0.0 0.0 0.00 0.00 0.00 71 1010.1
20260905111333 21 138 0.0 0.0 0.00 0.00 0.00 70 1009.9
20260905110832 22 158 0.0 0.0 0.00 0.00 0.00 71 1009.9
20260905110326 21 184 0.0 0.0 0.00 0.00 0.00 70 1009.8
20260905105822 22 181 0.0 0.0 0.00 0.00 0.00 70 1009.9
20260905105321 21 141 0.0 0.0 0.00 0.00 0.00 73 1009.8
20260905104815 21 142 0.0 0.0 0.00 0.00 0.00 70 1009.6
20260905104312 21 150 0.0 0.0 0.00 0.00 0.00 70 1009.6
20260905103811 21 158 0.0 0.0 0.00 0.00 0.00 70 1009.6
20260905103307 21 139 0.0 0.0 0.00 0.00 0.00 71 1009.6
20260905102803 21 191 0.0 0.0 0.00 0.00 0.00 70 1009.2
20260905102259 21 154 0.0 0.0 0.00 0.00 0.00 72 1009.2
20260905101758 21 182 0.0 0.0 0.00 0.00 0.00 69 1009.3
20260905101257 21 193 0.0 0.0 0.00 0.00 0.00 69 1009.3
20260905100751 21 158 0.0 0.0 0.00 0.00 0.00 69 1009.3
20260905100248 21 204 0.0 0.0 0.00 0.00 0.00 69 1009.6
20260905095742 22 184 0.0 0.0 0.00 0.00 0.00 69 1009.4
20260905095241 22 209 0.0 0.0 0.00 0.00 0.00 69 1009.6
20260905094736 22 162 0.0 0.0 0.00 0.00 0.00 69 1009.5
20260905094232 22 152 0.0 0.0 0.00 0.00 0.00 68 1009.3
20260905093731 22 203 0.0 0.0 0.00 0.00 0.00 68 1009.4
20260905093227 22 176 0.0 0.0 0.00 0.00 0.00 68 1009.3
20260905092722 22 190 0.0 0.0 0.00 0.00 0.00 68 1009.3
20260905092217 22 203 0.0 0.0 0.00 0.00 0.00 68 1009.3
20260905091716 22 185 0.0 0.0 0.00 0.00 0.00 67 1009.2
20260905091212 22 172 0.0 0.0 0.00 0.00 0.00 67 1009.1
20260905090711 22 154 0.0 0.0 0.00 0.00 0.00 69 1009.0
20260905090207 22 157 0.0 0.0 0.00 0.00 0.00 67 1009.3
20260905085706 22 199 0.0 0.0 0.00 0.00 0.00 66 1009.2
20260905085201 22 163 0.0 0.0 0.00 0.00 0.00 67 1009.0
20260905084700 22 210 0.0 0.0 0.00 0.00 0.00 66 1009.2
20260905084149 22 156 0.0 0.0 0.00 0.00 0.00 68 1009.3
20260905083644 22 197 0.0 0.0 0.00 0.00 0.00 65 1009.2
20260905083141 22 138 0.0 0.0 0.00 0.00 0.00 67 1009.1
20260905082637 22 184 0.0 0.0 0.00 0.00 0.00 65 1009.2
20260905082131 22 207 0.0 0.0 0.00 0.00 0.00 65 1009.2
20260905081631 23 218 0.0 0.0 0.00 0.00 0.00 64 1009.4
20260905081126 22 143 0.0 0.0 0.00 0.00 0.00 64 1009.0
20260905080621 22 164 0.0 0.0 0.00 0.00 0.00 64 1009.2
20260905080120 23 215 0.0 0.0 0.00 0.00 0.00 64 1009.0
20260905075619 23 252 0.0 0.0 0.00 0.00 0.00 64 1009.1
20260905075114 23 232 0.0 0.0 0.00 0.00 0.00 64 1009.4
20260905074613 23 226 0.0 0.0 0.00 0.00 0.00 64 1009.3
20260905074109 23 225 0.0 0.0 0.00 0.00 0.00 63 1009.3
20260905073604 23 195 0.0 0.0 0.00 0.00 0.00 62 1009.1
20260905073100 23 197 0.0 0.0 0.00 0.00 0.00 62 1009.2
20260905072559 23 230 0.0 0.0 0.00 0.00 0.00 62 1009.3
20260905072055 23 203 0.0 0.0 0.00 0.00 0.00 62 1009.4
20260905071551 23 203 0.0 0.0 0.00 0.00 0.00 61 1009.1
20260905071046 23 170 0.0 0.0 0.00 0.00 0.00 63 1009.3
20260905070541 23 191 0.0 0.0 0.00 0.00 0.00 61 1009.2
20260905070037 23 194 0.0 0.0 0.00 0.00 0.00 62 1009.3
20260905065535 23 222 0.0 0.0 0.00 0.00 0.00 61 1009.4
20260905065030 23 207 0.0 0.0 0.00 0.00 0.00 62 1009.2